Location: Newark
(44.2003°N, 3.2583°E)
Time: 13:15:25
(UTC+00:00)

Explorer 7 - Pass Details

Date: 24 October 2019
Orbit: 485 x 680 km, 50.3° (Epoch: 17 November)

Event Time Altitude Azimuth Distance (km) Brightness Sun altitude
Rises 10:17:45 0° 247° (WSW) 2,571 10.3 31.6°
Reaches altitude 10° 10:19:57 10° 249° (WSW) 1,677 9.4 31.8°
Maximum altitude 10:23:42 72° 334° (NNW) 513 6.9 32.0°
Drops below altitude 10° 10:27:27 10° 60° (ENE) 1,671 9.3 32.2°
Sets 10:29:39 0° 62° (ENE) 2,561 10.1 32.3°
